sat.trackr.live / text

‹ back to catalog

ONEWEB-0241

NORAD 48773 · 2021-045G

PAYLOAD ACTIVE UNKNOWN

§ Identity

Operator
Country
UK
Launch date
2021-05-28
Launch site
VOSTO
Launch vehicle
Mass (kg)
RCS (m²)

Purposes: comms

External: N2YO · Heavens-Above · Gunter

§ Orbital elements

Epoch: 2026-09-14T22:23:30.060384Z

Period
109.46 min
Inclination
87.8978°
Eccentricity
0.0001951
Mean motion
13.15548796 rev/d
Perigee alt
1,200.3 km
Apogee alt
1,203.2 km
Semi-major
7,579.9 km
B*
2.6991e-4
RAAN
241.3090°
Arg perigee
75.5177°
Mean anomaly
284.6170°
Rev number
25,613

§ Raw data

ONEWEB-02411 48773U 21045G   26257.93298681  .00000114  00000+0  26991-3 0  99942 48773  87.8978 241.3090 0001951  75.5177 284.6170 13.15548796256139

JSON: /api/v1/satellites/48773 · /tle

For live sub-satellite position, see the globe view (requires WebGL).

§ Visibility from observer

Set your observer location to see the next 7 days of passes ≥ 10°. The values pass through the URL so the page stays shareable.

No JS? Fill the form by hand. The geolocation button needs JavaScript.